Change the Weather History Date:

Monday, February 11, 2013

  Actual Average Record
Temperature  
Mean Temperature 52 °F -  
Max Temperature 55 °F 57 °F 75 °F (1965)
Min Temperature 48 °F 33 °F 18 °F (1955)
Degree Days  
Heating Degree Days 14    
Growing Degree Days 2 (Base 50)    
Moisture  
Dew Point 52 °F    
Average Humidity 98    
Maximum Humidity 100    
Minimum Humidity 93    
Precipitation  
Precipitation 0.14 in - - ()
Sea Level Pressure  
Sea Level Pressure 30.07 in    
Wind  
Wind Speed 5 mph (WSW)    
Max Wind Speed 15 mph    
Max Gust Speed 17 mph    
Visibility 7 miles    
Events Fog , Rain    
Averages and records for this station are not official NWS values.
T = Trace of Precipitation, MM = Missing Value Source: NWS Daily Summary

Daily Weather History Graph

Daily Weather History Graph

Search for Another Location

Airport or City:

Trip Planner

Search our weather history database for the weather conditions in past years. The results will help you decide how hot, cold, wet, or windy it might be!

Date:

Astronomy

Feb. 11, 2013 Rise Set
Actual Time 7:19 AM EST 6:10 PM EST
Civil Twilight 6:54 AM EST 6:36 PM EST
Nautical Twilight 6:24 AM EST 7:06 PM EST
Astronomical Twilight 5:55 AM EST 7:35 PM EST
Moon 7:49 AM EST (2/11) 7:58 PM EST (2/11)
Length of Visible Light 11h 42m
Length of Day
10h 50m
Waxing Crescent, 3% of the Moon is Illuminated
Feb 11
Waxing Crescent
Feb 17
First Quarter
Feb 25
Full
Mar 4
Last Quarter
Mar 11
New

Hourly Weather History & Observations

Time (EST) Temp. Dew Point Humidity Pressure Visibility Wind Dir Wind Speed Gust Speed Precip Events Conditions
12:56 AM 50.0 °F 50.0 °F 100% 30.12 in 10.0 mi ENE 4.6 mph - 0.03 in Rain Light Rain
1:56 AM 51.1 °F 51.1 °F 100% 30.12 in 10.0 mi Calm Calm - 0.00 in Rain Light Rain
2:56 AM 48.9 °F 48.9 °F 100% 30.10 in 5.0 mi Calm Calm - 0.02 in   Overcast
3:56 AM 48.9 °F 48.9 °F 100% 30.09 in 5.0 mi NNW 5.8 mph - 0.02 in Rain Light Rain
4:56 AM 48.9 °F 48.9 °F 100% 30.09 in 5.0 mi Calm Calm - 0.01 in Rain Light Rain
5:56 AM 48.9 °F 48.9 °F 100% 30.06 in 7.0 mi NE 3.5 mph - 0.02 in Rain Light Rain
6:56 AM 48.9 °F 48.9 °F 100% 30.07 in 8.0 mi North 3.5 mph - 0.02 in Rain Light Rain
7:03 AM 50.0 °F 48.2 °F 94% 30.07 in 9.0 mi NE 4.6 mph - 0.00 in   Overcast
7:56 AM 50.0 °F 50.0 °F 100% 30.10 in 8.0 mi Calm Calm - 0.00 in   Overcast
8:56 AM 51.1 °F 51.1 °F 100% 30.09 in 6.0 mi Calm Calm - 0.01 in   Overcast
9:35 AM 51.8 °F 51.8 °F 100% 30.08 in 3.0 mi Calm Calm - N/A   Overcast
9:52 AM 51.8 °F 51.8 °F 100% 30.06 in 1.8 mi Calm Calm - N/A   Overcast
9:53 AM 51.1 °F 51.1 °F 100% 30.06 in 1.8 mi Calm Calm - N/A   Overcast
10:02 AM 51.8 °F 51.8 °F 100% 30.07 in 0.5 mi South 3.5 mph - N/A Fog Fog
10:56 AM 52.0 °F 52.0 °F 100% 30.10 in 0.5 mi West 4.6 mph - N/A Fog Fog
11:48 AM 51.8 °F 51.8 °F 100% 30.08 in 1.0 mi South 5.8 mph 17.3 mph 0.00 in Rain Light Rain
11:56 AM 53.1 °F 53.1 °F 100% 30.07 in 1.8 mi NW 4.6 mph - 0.00 in Rain Light Rain
12:31 PM 53.6 °F 53.6 °F 100% 30.09 in 0.8 mi West 10.4 mph - 0.00 in   Overcast
12:56 PM 53.1 °F 53.1 °F 100% 30.07 in 1.0 mi West 9.2 mph - 0.00 in   Overcast
1:15 PM 53.6 °F 53.6 °F 100% 30.06 in 3.0 mi WSW 6.9 mph - 0.00 in   Overcast
1:49 PM 55.4 °F 55.4 °F 100% 30.08 in 10.0 mi WSW 15.0 mph - 0.00 in Rain Light Rain
1:56 PM 55.0 °F 55.0 °F 100% 30.07 in 10.0 mi WSW 11.5 mph - 0.00 in Rain Light Rain
2:25 PM 55.4 °F 55.4 °F 100% 30.06 in 10.0 mi SW 11.5 mph - 0.01 in Rain Light Rain
2:32 PM 55.4 °F 55.4 °F 100% 30.05 in 10.0 mi SW 11.5 mph - 0.01 in Rain Light Rain
2:56 PM 55.9 °F 55.0 °F 97% 30.03 in 10.0 mi WSW 9.2 mph - 0.01 in Rain Light Rain
3:56 PM 55.9 °F 55.0 °F 97% 30.05 in 10.0 mi SW 9.2 mph - 0.00 in   Overcast
4:56 PM 55.9 °F 54.0 °F 93% 30.02 in 10.0 mi SW 11.5 mph - 0.00 in   Overcast
5:56 PM 55.0 °F 53.1 °F 93% 30.04 in 10.0 mi SW 8.1 mph - 0.00 in   Mostly Cloudy
6:56 PM 54.0 °F 53.1 °F 97% 30.05 in 10.0 mi SW 8.1 mph - N/A   Clear
7:56 PM 54.0 °F 52.0 °F 93% 30.05 in 10.0 mi SW 8.1 mph - N/A   Clear
8:56 PM 52.0 °F 51.1 °F 97% 30.06 in 10.0 mi SW 5.8 mph - N/A   Clear
9:56 PM 52.0 °F 51.1 °F 97% 30.04 in 10.0 mi WSW 5.8 mph - N/A   Clear
10:56 PM 52.0 °F 51.1 °F 97% 30.04 in 10.0 mi SW 4.6 mph - N/A   Clear
11:56 PM 52.0 °F 50.0 °F 93% 30.05 in 10.0 mi WSW 6.9 mph - N/A   Clear